[[{"header":{"parameterUnit":"m.s-1","parameterCategory":1,"la1":30.2991,"la2":30.254,"lo1":-89.0895,"lo2":-89.0444,"dy":0.0017,"dx":0.0017,"nx":28,"ny":28,"refTime":"2023-11-22T03:00:00:Z","depth":0,"parameterNumber":2,"parameterNumberName":"U-component_of_WINDS"},"data":[0,0,0,0,0,0,0,0,0,0,0,0,0,0,0,0,0,0,0,0,0,0,0,0,0,0,0,0,0,0,0,0,0,0,0,0,0,0,0,0,0,0,0,0,0,0,0,0,0,0,0,0,0,0,0,0,0,0,-0.5581,-0.558,0,-0.5539,-0.5538,-0.5538,-0.5498,-0.5497,-0.5497,-0.5496,-0.5456,-0.5455,-0.5455,0,0,0,0,0,0,0,0,0,0,0,0,0,-0.5628,-0.5627,-0.5581,-0.558,-0.558,-0.5539,-0.5538,-0.5538,-0.5498,-0.5497,-0.5497,-0.5496,-0.5456,-0.5455,-0.5455,0,0,0,0,0,0,0,0,0,0,0,0,0,-0.5599,-0.5627,-0.5581,-0.5555,-0.5552,-0.5539,-0.5538,-0.5538,-0.5498,-0.5497,-0.5497,-0.5496,-0.5456,-0.5455,-0.5454,-0.5464,0,0,-0.5452,-0.5451,0,0,0,0,0,0,0,0,-0.5601,-0.5597,-0.5559,-0.5557,-0.5554,-0.5523,-0.554,-0.5513,-0.5498,-0.5519,-0.5496,-0.5496,-0.5479,-0.5476,-0.547,-0.5462,-0.5461,-0.5452,-0.5451,-0.5451,-0.545,0,0,0,0,0,0,0,-0.5603,-0.5599,-0.5564,-0.5559,-0.5555,-0.5546,-0.5541,-0.5535,-0.5504,-0.5517,-0.5514,-0.5509,-0.5477,-0.5471,-0.5469,-0.546,-0.5452,-0.5451,-0.545,-0.545,-0.5458,-0.5458,0,0,0,0,0,0,-0.5608,-0.5601,-0.5566,-0.5563,-0.5576,-0.5546,-0.554,-0.5534,-0.5504,-0.5498,-0.551,-0.5508,-0.5473,-0.547,-0.5467,-0.5476,-0.5451,-0.545,-0.5449,-0.5457,-0.5458,-0.5459,0,0,0,0,0,0,-0.561,-0.5606,-0.5567,-0.5581,-0.5575,-0.5546,-0.5539,-0.5533,-0.5527,-0.5498,-0.5493,-0.5509,-0.5472,-0.5468,-0.5465,-0.5474,-0.5449,-0.5449,-0.5456,-0.5457,-0.5458,-0.5495,0,0,0,0,0,0,-0.5611,-0.5606,-0.561,-0.5581,-0.5575,-0.5566,-0.5539,-0.5533,-0.5525,-0.5522,-0.5496,-0.5491,-0.5471,-0.5467,-0.5464,-0.5473,-0.5448,-0.5455,-0.5457,-0.5458,-0.5493,-0.5498,-0.5501,0,0,0,0,0,-0.5613,-0.5622,-0.561,-0.5606,-0.5578,-0.5566,-0.5563,-0.5539,-0.5526,-0.5529,-0.5511,-0.5492,-0.5474,-0.5467,-0.5463,-0.5472,-0.5454,-0.5456,-0.5458,-0.5491,-0.5497,-0.5501,0,0,0,0,0,0,-0.5654,-0.5618,-0.5604,-0.5605,-0.5589,-0.556,-0.5563,-0.5545,-0.5533,-0.553,-0.5502,-0.5496,-0.5496,-0.5484,-0.5476,-0.548,-0.5461,-0.5463,-0.5488,-0.5493,-0.5497,-0.55,-0.5447,0,0,0,0,0,-0.5662,-0.5655,-0.5625,-0.5628,-0.5621,-0.5593,-0.5587,-0.557,-0.5552,-0.5546,-0.5527,-0.5512,-0.5502,-0.5497,-0.5486,-0.5491,-0.5485,-0.5495,-0.5499,-0.5503,-0.5504,-0.5506,-0.551,-0.5464,-0.5464,-0.5464,0,0,-0.5681,-0.5661,-0.5658,-0.5636,-0.5621,-0.5615,-0.5588,-0.5582,-0.5577,-0.5545,-0.5541,-0.5526,-0.5507,-0.5507,-0.5507,-0.5497,-0.5515,-0.5505,-0.5508,-0.5508,-0.5508,-0.5512,-0.5516,-0.5465,-0.5465,-0.5465,0,0,-0.5711,-0.5695,-0.5696,-0.5682,-0.566,-0.5641,-0.5641,-0.5615,-0.5604,-0.5598,-0.5574,-0.5568,-0.5552,-0.5539,-0.5531,-0.5555,-0.5537,-0.5552,-0.5574,-0.5576,-0.5579,-0.5582,-0.5591,-0.5595,-0.5554,-0.5554,-0.5554,0,-0.5738,-0.5726,-0.5699,-0.5694,-0.5685,-0.5654,-0.5655,-0.5643,-0.5619,-0.5614,-0.5603,-0.5582,-0.5567,-0.5564,-0.557,-0.5564,-0.5563,-0.5556,-0.5581,-0.5584,-0.5586,-0.5594,-0.5598,-0.5556,-0.5556,-0.5555,-0.5555,0,-0.5759,-0.5752,-0.5755,-0.5732,-0.5723,-0.5721,-0.5694,-0.5688,-0.5672,-0.5654,-0.5649,-0.563,-0.5615,-0.5612,-0.5596,-0.5607,-0.5601,-0.5586,-0.5567,-0.5593,-0.56,-0.5603,-0.5559,-0.5558,-0.5557,-0.5557,0,0,-0.5816,-0.5776,-0.5778,-0.5767,-0.574,-0.5734,-0.573,-0.5715,-0.5711,-0.5695,-0.5692,-0.5678,-0.5664,-0.5654,-0.5636,-0.5637,-0.5658,-0.5621,-0.5621,-0.5629,-0.5668,-0.568,-0.5684,-0.5645,-0.5646,-0.5646,-0.567,0,-0.5842,-0.5834,-0.5809,-0.5808,-0.5801,-0.5771,-0.5768,-0.5751,-0.5735,-0.5726,-0.5708,-0.5699,-0.568,-0.5674,-0.5674,-0.5655,-0.5665,-0.5653,-0.5643,-0.5643,-0.5649,-0.5688,-0.5701,-0.5725,-0.5672,-0.5673,-0.5673,0,-0.5872,-0.5857,-0.5856,-0.5828,-0.5824,-0.5822,-0.5806,-0.5798,-0.5778,-0.5766,-0.5754,-0.5734,-0.5729,-0.5711,-0.5704,-0.5696,-0.569,-0.568,-0.5681,-0.568,-0.566,-0.5689,-0.5731,-0.5735,-0.5677,-0.5677,-0.5677,0,-0.5914,-0.5894,-0.589,-0.5881,-0.5849,-0.5848,-0.5835,-0.5814,-0.5806,-0.5791,-0.5786,-0.5771,-0.5764,-0.5753,-0.5729,-0.5718,-0.5725,-0.5705,-0.5715,-0.5716,-0.5719,-0.5719,-0.5762,-0.5714,-0.5714,-0.5714,-0.5714,0,-0.5947,-0.5947,-0.5908,-0.5906,-0.5906,-0.5876,-0.5877,-0.5861,-0.5842,-0.5837,-0.581,-0.5805,-0.5774,-0.5766,-0.5747,-0.5744,-0.5741,-0.5731,-0.5726,-0.5734,-0.5735,-0.5731,-0.5729,-0.5715,-0.5715,-0.5714,-0.5714,0,-0.5994,-0.5968,-0.5962,-0.5931,-0.5923,-0.5924,-0.5898,-0.5895,-0.5876,-0.587,-0.5866,-0.5837,-0.5826,-0.5801,-0.5783,-0.5771,-0.5773,-0.5764,-0.5779,-0.5777,-0.5788,-0.5788,-0.583,-0.5835,-0.5783,-0.5784,-0.5784,0,-0.6017,-0.6016,-0.5985,-0.5979,-0.5966,-0.5957,-0.5948,-0.5919,-0.5911,-0.5888,-0.5888,-0.5874,-0.5862,-0.5846,-0.5824,-0.581,-0.5801,-0.5816,-0.5799,-0.5806,-0.5802,-0.5802,-0.5802,-0.5821,-0.5822,-0.5822,-0.5823,0,-0.6061,-0.6047,-0.6035,-0.6019,-0.6009,-0.5995,-0.5979,-0.5976,-0.5943,-0.5935,-0.5923,-0.5913,-0.5895,-0.5882,-0.5865,-0.5851,-0.5832,-0.5828,-0.583,-0.5838,-0.5848,-0.5843,-0.5791,-0.5828,-0.5827,-0.5827,-0.5826,-0.5826,-0.6097,-0.6095,-0.6072,-0.606,-0.6044,-0.603,-0.6025,-0.6005,-0.5994,-0.5976,-0.596,-0.5949,-0.5929,-0.5903,-0.5891,-0.5883,-0.5873,-0.5875,-0.5876,-0.5877,-0.5881,-0.5848,-0.5879,-0.5879,-0.5879,-0.5879,-0.5879,0,-0.614,-0.6123,-0.6112,-0.609,-0.608,-0.6061,-0.6042,-0.6036,-0.6026,-0.6008,-0.5996,-0.5982,-0.5969,-0.5945,-0.593,-0.5928,-0.5919,-0.5925,-0.5926,-0.5923,-0.589,-0.5891,-0.5933,-0.5933,-0.5933,-0.5933,-0.5933,-0.5933,-0.6161,-0.6156,-0.614,-0.6128,-0.6111,-0.61,-0.6091,-0.6078,-0.6063,-0.6048,-0.6037,-0.6021,-0.6,-0.5983,-0.5971,-0.5964,-0.596,-0.597,-0.596,-0.5931,-0.5925,-0.5921,-0.5921,-0.5969,-0.5969,-0.5994,-0.5994,-0.5994]},{"header":{"parameterUnit":"m.s-1","parameterCategory":1,"la1":30.2991,"la2":30.254,"lo1":-89.0895,"lo2":-89.0444,"dy":0.0017,"dx":0.0017,"nx":28,"ny":28,"refTime":"2023-11-22T03:00:00:Z","depth":0,"parameterNumber":3,"parameterNumberName":"V-component_of_WINDS"},"data":[0,0,0,0,0,0,0,0,0,0,0,0,0,0,0,0,0,0,0,0,0,0,0,0,0,0,0,0,0,0,0,0,0,0,0,0,0,0,0,0,0,0,0,0,0,0,0,0,0,0,0,0,0,0,0,0,0,0,-0.9258,-0.9259,0,-0.9333,-0.9334,-0.9335,-0.9366,-0.9366,-0.9366,-0.9366,-0.9442,-0.9445,-0.9447,0,0,0,0,0,0,0,0,0,0,0,0,0,-0.9141,-0.9143,-0.9258,-0.9259,-0.926,-0.9333,-0.9334,-0.9335,-0.9366,-0.9366,-0.9366,-0.9366,-0.9442,-0.9444,-0.9447,0,0,0,0,0,0,0,0,0,0,0,0,0,-0.9202,-0.9144,-0.9258,-0.9284,-0.9287,-0.9333,-0.9334,-0.9335,-0.9366,-0.9366,-0.9366,-0.9366,-0.9441,-0.9444,-0.9447,-0.9472,0,0,-0.9457,-0.9459,0,0,0,0,0,0,0,0,-0.9198,-0.9206,-0.9279,-0.9283,-0.9286,-0.934,-0.9321,-0.9381,-0.9366,-0.9336,-0.9366,-0.9365,-0.9409,-0.9414,-0.9429,-0.9476,-0.9479,-0.9458,-0.946,-0.9461,-0.9462,0,0,0,0,0,0,0,-0.9194,-0.9203,-0.9288,-0.928,-0.9285,-0.9292,-0.9301,-0.9333,-0.9373,-0.9339,-0.9341,-0.935,-0.941,-0.9426,-0.9431,-0.948,-0.9458,-0.946,-0.9462,-0.9464,-0.955,-0.955,0,0,0,0,0,0,-0.9186,-0.9199,-0.9285,-0.929,-0.9241,-0.9294,-0.9304,-0.9323,-0.9373,-0.938,-0.935,-0.9351,-0.942,-0.9427,-0.9434,-0.9466,-0.9461,-0.9464,-0.9466,-0.9549,-0.955,-0.955,0,0,0,0,0,0,-0.9183,-0.9193,-0.9282,-0.9245,-0.9257,-0.9297,-0.9318,-0.9325,-0.934,-0.9381,-0.9388,-0.9358,-0.942,-0.9429,-0.9462,-0.9469,-0.9466,-0.9468,-0.9549,-0.955,-0.955,-0.9529,0,0,0,0,0,0,-0.9179,-0.9192,-0.9202,-0.9245,-0.9259,-0.9309,-0.9318,-0.9326,-0.9346,-0.9348,-0.9391,-0.9398,-0.9421,-0.9457,-0.9465,-0.9473,-0.9471,-0.9549,-0.9549,-0.955,-0.953,-0.9529,-0.9529,0,0,0,0,0,-0.9175,-0.9193,-0.9202,-0.9212,-0.9272,-0.931,-0.9318,-0.9344,-0.9346,-0.9356,-0.9382,-0.9396,-0.9467,-0.946,-0.947,-0.9479,-0.9548,-0.9549,-0.955,-0.953,-0.9529,-0.9529,0,0,0,0,0,0,-0.9149,-0.9199,-0.921,-0.9242,-0.9272,-0.9315,-0.9329,-0.9343,-0.9372,-0.9373,-0.9404,-0.9414,-0.9444,-0.9465,-0.9456,-0.9505,-0.9509,-0.9511,-0.949,-0.949,-0.9489,-0.9484,-0.9474,0,0,0,0,0,-0.9147,-0.9174,-0.9216,-0.9241,-0.9255,-0.9289,-0.9306,-0.9324,-0.9356,-0.9368,-0.9397,-0.9427,-0.9455,-0.9474,-0.9503,-0.9533,-0.9542,-0.9544,-0.9543,-0.9542,-0.9544,-0.9562,-0.9562,-0.9553,-0.9553,-0.9553,0,0,-0.9144,-0.9174,-0.9189,-0.9236,-0.9261,-0.9287,-0.9299,-0.9327,-0.9346,-0.9372,-0.9405,-0.9427,-0.9462,-0.9494,-0.9509,-0.9512,-0.9549,-0.9543,-0.9543,-0.9545,-0.9562,-0.9563,-0.9564,-0.9553,-0.9553,-0.9553,0,0,-0.9151,-0.9176,-0.92,-0.9224,-0.9261,-0.9284,-0.9289,-0.933,-0.9346,-0.9379,-0.9399,-0.9423,-0.9472,-0.9496,-0.9515,-0.953,-0.9544,-0.9539,-0.9536,-0.9552,-0.9553,-0.9554,-0.9559,-0.9561,-0.954,-0.954,-0.954,0,-0.9142,-0.9182,-0.921,-0.9236,-0.9256,-0.928,-0.9304,-0.9326,-0.9371,-0.9384,-0.9386,-0.9448,-0.9474,-0.9511,-0.9515,-0.9529,-0.9536,-0.9534,-0.9551,-0.9552,-0.9553,-0.9558,-0.956,-0.954,-0.954,-0.954,-0.954,0,-0.9169,-0.9196,-0.9211,-0.9253,-0.9274,-0.9299,-0.933,-0.9349,-0.9364,-0.9386,-0.942,-0.9451,-0.9487,-0.9497,-0.9513,-0.9536,-0.9537,-0.9545,-0.9549,-0.9553,-0.9558,-0.956,-0.9538,-0.9539,-0.9539,-0.9539,0,0,-0.9162,-0.9219,-0.9223,-0.9242,-0.9285,-0.9307,-0.9332,-0.9367,-0.9382,-0.9412,-0.9434,-0.9474,-0.9482,-0.9503,-0.9522,-0.9536,-0.9545,-0.9542,-0.9543,-0.9541,-0.9573,-0.9567,-0.9569,-0.9555,-0.9555,-0.9556,-0.957,0,-0.9174,-0.9221,-0.9246,-0.9283,-0.9308,-0.9331,-0.9354,-0.9382,-0.9403,-0.9428,-0.9451,-0.948,-0.9487,-0.95,-0.9515,-0.9541,-0.9552,-0.954,-0.9575,-0.9576,-0.9566,-0.9572,-0.9565,-0.9577,-0.9572,-0.9573,-0.9573,0,-0.9195,-0.9224,-0.9263,-0.9302,-0.9313,-0.9333,-0.9366,-0.939,-0.9422,-0.9436,-0.946,-0.9478,-0.9506,-0.9508,-0.9546,-0.9537,-0.9553,-0.9568,-0.9569,-0.9573,-0.9575,-0.9576,-0.9582,-0.9584,-0.9577,-0.9576,-0.9576,0,-0.9186,-0.9235,-0.9264,-0.928,-0.9326,-0.9339,-0.9359,-0.9391,-0.941,-0.9439,-0.9452,-0.9483,-0.9501,-0.9525,-0.9552,-0.9551,-0.9587,-0.9591,-0.96,-0.9599,-0.9607,-0.9606,-0.9615,-0.9617,-0.9617,-0.9617,-0.9616,0,-0.9197,-0.922,-0.926,-0.9278,-0.9304,-0.9333,-0.9358,-0.9379,-0.9408,-0.943,-0.9452,-0.9473,-0.9506,-0.9531,-0.9552,-0.958,-0.9588,-0.96,-0.9606,-0.9598,-0.9597,-0.9609,-0.9609,-0.9617,-0.9617,-0.9617,-0.9617,0,-0.9191,-0.9219,-0.9253,-0.9294,-0.9304,-0.9321,-0.9356,-0.9375,-0.9397,-0.9425,-0.9433,-0.9468,-0.9498,-0.9527,-0.9567,-0.9581,-0.961,-0.9616,-0.9599,-0.9601,-0.9608,-0.9607,-0.9626,-0.963,-0.9628,-0.9628,-0.9628,0,-0.9196,-0.9214,-0.9257,-0.9273,-0.9293,-0.9319,-0.9338,-0.9367,-0.9386,-0.9424,-0.9438,-0.9469,-0.9496,-0.9543,-0.9572,-0.9603,-0.9611,-0.9615,-0.9616,-0.9608,-0.9611,-0.961,-0.9612,-0.9615,-0.9615,-0.9615,-0.9615,0,-0.9202,-0.9215,-0.9242,-0.9274,-0.9296,-0.9323,-0.935,-0.9362,-0.9396,-0.9417,-0.9448,-0.9468,-0.9509,-0.9541,-0.9575,-0.9595,-0.961,-0.9614,-0.9618,-0.9611,-0.9599,-0.9605,-0.9597,-0.9614,-0.9614,-0.9614,-0.9614,-0.9614,-0.9202,-0.9219,-0.9252,-0.9281,-0.9304,-0.9329,-0.9348,-0.9372,-0.9398,-0.9434,-0.9449,-0.9481,-0.9512,-0.956,-0.958,-0.9604,-0.9608,-0.9613,-0.9615,-0.9615,-0.9614,-0.9595,-0.9611,-0.9611,-0.9611,-0.9611,-0.9611,0,-0.921,-0.9231,-0.9258,-0.9295,-0.9318,-0.933,-0.936,-0.9379,-0.9406,-0.9434,-0.946,-0.9495,-0.9525,-0.9557,-0.9588,-0.9602,-0.961,-0.961,-0.9609,-0.9613,-0.9609,-0.9603,-0.9603,-0.9603,-0.9603,-0.9603,-0.9603,-0.9603,-0.9216,-0.9245,-0.9261,-0.9302,-0.9324,-0.9355,-0.9371,-0.9394,-0.9416,-0.9455,-0.948,-0.95,-0.9529,-0.9563,-0.9591,-0.96,-0.961,-0.9608,-0.9618,-0.9613,-0.9614,-0.9614,-0.9608,-0.961,-0.961,-0.9621,-0.9621,-0.9621]}]]